Location: Lake Zurich
(42.1970°N, 88.0930°W)
Time: 05:33:36
(UTC-05:00)

Daily predictions for brighter satellites

Satellite Brightness Start Highest point End
(mag) Time Altitude Azimuth Time Altitude Azimuth Time Altitude Azimuth
USA 234 3.6 00:02:07 10° NE 00:08:34 61° NW 00:14:57 10° WSW
Meteor 1-5 Rocket 4.1 00:12:17 72° NE 00:12:17 72° NE 00:17:13 10° NNE
Cosmos 1821 Rocket 4.5 00:11:41 45° WSW 00:13:04 53° WNW 00:19:10 10° N
Cosmos 1605 Rocket 3.9 00:12:59 74° SSW 00:13:39 88° W 00:20:06 10° N
Cosmos 1943 Rocket 3.0 00:18:38 38° ENE 00:18:38 38° ENE 00:22:44 10° NE
Cosmos 1992 Rocket 4.3 00:18:34 56° NE 00:18:34 56° NE 00:22:51 10° NNE
Cosmos 2285 Rocket 4.1 00:19:34 59° WSW 00:20:38 71° WNW 00:27:02 10° NNE
Cosmos 1934 Rocket 4.4 00:24:53 45° WSW 00:25:52 49° WNW 00:31:45 10° N
SL-8 R/B 4.3 00:23:43 10° WNW 00:28:03 55° N 00:28:03 55° N
ISS -0.2 00:26:36 10° NW 00:28:40 16° N 00:30:09 12° NNE
Cosmos 2123 Rocket 4.3 00:23:46 10° NNW 00:29:51 54° W 00:30:22 52° WSW
Cosmos 1455 Rocket 4.0 00:31:06 46° NNW 00:31:06 46° NNW 00:34:17 10° N
Cosmos 2173 Rocket 4.4 00:29:53 50° E 00:30:03 50° E 00:36:08 10° NNE
ALOS 2 3.5 00:31:15 47° NNW 00:31:15 47° NNW 00:34:28 10° NNW
Cosmos 1153 Rocket 4.3 00:30:45 80° S 00:31:08 88° E 00:37:30 10° N
Lacrosse 5 rocket 3.3 00:43:57 24° NNW 00:43:57 24° NNW 00:46:46 10° NNE
Meteor 1-12 Rocket 4.2 00:48:00 82° N 00:48:00 82° N 00:53:24 10° N
Cosmos 2263 4.4 00:48:31 63° WNW 00:48:41 63° WNW 00:54:18 10° NNE
Lacrosse 5 3.3 00:56:43 25° WNW 00:58:47 35° NNW 01:03:28 10° NE
CZ-4B R/B 4.4 01:04:45 12° NW 01:04:45 12° NW 01:05:04 10° NNW
SeaSat 1 4.2 01:01:12 21° E 01:02:51 26° NE 01:06:52 10° N
Helios 1A Rocket 4.2 01:00:22 10° N 01:03:04 40° N 01:03:04 40° N
Cosmos 1833 4.4 01:04:52 10° NNW 01:09:47 63° WNW 01:09:47 63° WNW
Cosmos 44 Rocket 3.7 01:05:25 10° NNW 01:09:52 62° N 01:09:52 62° N
GP-B 4.2 01:14:15 10° N 01:17:25 41° NW 01:17:25 41° NW
CZ-2C R/B 3.2 01:20:59 67° N 01:20:59 67° N 01:25:14 10° NNW
Meteor 1-21 4.5 01:14:58 10° N 01:20:31 58° ENE 01:20:40 58° E
Cosmos 968 Rocket 3.8 01:18:39 10° NNW 01:22:58 58° NW 01:22:58 58° NW
SL-08 R/B 4.4 01:24:07 77° SE 01:24:33 81° E 01:30:58 10° N
NOSS 3-3 (A) 4.0 01:24:51 63° ESE 01:24:51 63° ESE 01:31:21 10° NE
NOSS 3-3 (C) 4.1 01:24:57 63° ESE 01:24:57 63° ESE 01:31:26 10° NE
H-2A R/B 4.3 01:21:15 10° N 01:24:44 27° WNW 01:24:44 27° WNW
Cosmos 2369 Rocket 3.9 01:23:58 21° W 01:25:56 25° NW 01:30:31 10° N
Cosmos 2058 Rocket 4.4 01:27:44 35° ENE 01:27:44 35° ENE 01:30:54 10° NNE
Cosmos 1743 4.4 01:28:43 32° NNE 01:28:43 32° NNE 01:30:54 10° N
CZ-2C R/B 2.9 01:28:26 10° N 01:33:24 56° WNW 01:33:24 56° WNW
Cosmos 1953 Rocket 4.5 01:29:17 10° N 01:32:25 46° N 01:32:25 46° N
Cosmos 2219 3.1 01:31:32 10° NNW 01:36:49 77° NW 01:36:49 77° NW
UNK 4.3 01:24:40 10° WSW 01:37:41 62° NNW 01:41:23 10° NE
Cosmos 2227 Rocket 3.7 01:34:45 10° N 01:39:47 31° NE 01:42:57 19° ESE
Cosmos 1726 Rocket 4.4 01:43:02 48° NNE 01:43:02 48° NNE 01:46:12 10° N
ATLAS 2AS CENTAUR R/B 3.0 01:37:43 10° NW 01:45:34 57° WSW 01:46:07 56° SW
Cosmos 44 3.6 01:40:54 10° NNW 01:45:55 67° NE 01:45:55 67° NE
ATLAS CENTAUR R/B 3.9 01:48:10 16° E 01:48:10 16° E 01:50:34 10° ENE
Cosmos 1656 Rocket 3.7 01:51:46 67° WNW 01:51:57 68° WNW 01:57:34 10° NNE
Cosmos 2233 Rocket 4.0 01:52:10 62° SE 01:52:50 66° E 01:58:56 10° NNE
Cosmos 1666 4.2 01:55:39 35° NNE 01:55:39 35° NNE 01:57:58 10° NNE
Cosmos 2098 Rocket 4.2 01:54:53 64° SW 01:56:01 78° W 02:03:39 10° N
Cosmos 2016 Rocket 4.4 01:56:08 47° W 01:56:37 48° WNW 02:02:30 10° N
Cosmos 1758 Rocket 4.3 01:53:01 10° NNW 01:56:24 49° NNW 01:56:24 49° NNW
Cosmos 2278 4.4 01:58:52 40° ESE 01:59:03 40° ESE 02:04:18 10° NE
Cosmos 2297 Rocket 3.7 01:56:04 10° N 02:01:09 33° NE 02:05:19 14° ESE
Cosmos 1943 Rocket 3.5 02:00:09 27° WNW 02:01:22 29° NW 02:06:14 10° N
Meteor 2-17 Rocket 4.4 02:02:00 66° SSE 02:02:46 75° E 02:08:52 10° NNE
ISS -0.3 02:08:09 13° ENE 02:08:09 13° ENE 02:08:38 10° ENE
Cosmos 2208 Rocket 3.9 02:10:10 79° WNW 02:10:10 79° WNW 02:15:24 10° NNE
BREEZE-M DEB (TANK) 4.1 02:12:27 53° SE 02:12:27 53° SE 02:15:46 10° ENE
Cosmos 405 Rocket 4.4 02:10:50 10° NNE 02:14:24 28° ENE 02:14:45 28° E
BREEZE-M DEB (TANK) 3.3 02:19:22 67° NE 02:19:22 67° NE 02:22:23 10° ENE
Uosat 12 SS-18 rocket 4.4 02:22:58 10° NW 02:27:11 68° WNW 02:27:11 68° WNW
Cosmos 2228 3.6 02:28:59 51° NW 02:28:59 51° NW 02:32:32 10° N
ERS-2 3.8 02:30:46 10° NE 02:33:47 27° E 02:33:47 27° E
NOSS 2-1 (D) 3.9 02:39:46 52° E 02:39:46 52° E 02:43:34 10° NE
USA 161 4.2 02:40:01 17° ENE 02:40:01 17° ENE 02:41:55 10° NNE
SeaSat 1 3.0 02:40:59 43° W 02:40:59 43° W 02:44:54 10° NW
NOSS 2-1 (C) 3.9 02:41:07 53° E 02:41:07 53° E 02:44:58 10° NE
Cosmos 468 Rocket 4.2 02:41:26 53° SE 02:42:11 60° ESE 02:47:16 10° NNE
Cosmos 1656 4.3 02:43:30 38° SE 02:44:55 46° ESE 02:50:19 10° NE
BREEZE-M DEB (TANK) 2.9 02:41:59 10° WNW 02:51:57 64° SW 02:52:03 64° SSW
Cosmos 2034 Rocket 4.2 02:50:04 38° SSE 02:52:28 67° E 02:58:36 10° NNE
Cosmos 1707 2.9 02:51:40 10° N 02:55:36 69° E 02:55:42 69° E
NOSS 2-1 (E) 3.3 02:55:46 76° ESE 02:55:46 76° ESE 03:00:16 10° NE
CZ-2D R/B 3.7 02:51:21 10° NE 02:56:02 28° E 02:59:09 17° SE
IRS-1C 4.2 02:51:19 10° NNE 02:56:40 73° ESE 02:58:08 48° S
Cosmos 2150 Rocket 3.8 02:53:01 10° NNW 02:58:16 84° WSW 02:59:35 52° S
SL-16 R/B 3.3 02:56:49 10° SE 03:02:42 49° ENE 03:08:37 10° N
Cosmos 1812 Rocket 3.7 03:03:04 56° W 03:03:14 56° W 03:07:39 10° N
AQUA 3.7 02:59:00 10° N 03:03:47 79° WNW 03:04:35 61° SW
Cosmos 1898 Rocket 3.4 03:00:53 10° NNW 03:06:13 70° WSW 03:07:33 49° S
NOSS 3-4 (A) 3.8 03:01:40 10° NW 03:08:41 84° NE 03:16:06 10° SE
NOSS 3-4 (C) 3.8 03:01:46 10° NW 03:08:49 83° NE 03:16:17 10° SE
Cosmos 1697 Rocket 3.1 03:08:37 36° SSE 03:10:43 56° ESE 03:16:16 10° NNE
Cosmos 841 Rocket 4.2 03:11:30 31° SSE 03:13:38 48° ESE 03:18:42 10° NNE
Cosmos 2082 3.8 03:08:18 10° NNW 03:13:45 52° WSW 03:14:50 45° SW
CBERS 1 LM4 rocket 4.3 03:10:27 10° NNE 03:15:15 85° WNW 03:16:33 49° SSW
Geosat 3.9 03:12:05 10° NNE 03:17:09 80° WNW 03:18:39 46° SW
Cosmos 1937 Rocket 3.3 03:12:20 10° NNW 03:17:32 78° WSW 03:19:45 35° S
Cosmos 1980 Rocket 3.2 03:16:23 23° SSE 03:19:16 40° ESE 03:24:31 10° NE
Cosmos 1763 Rocket 3.7 03:17:33 36° S 03:19:34 62° ESE 03:24:42 10° NNE
GEOS 3 Rocket 4.4 03:14:57 10° ESE 03:19:59 54° NE 03:25:02 10° NNW
Cosmos 2227 Rocket 2.6 03:18:39 10° NW 03:23:55 40° WSW 03:24:42 38° SW
Milstar 3 Cent rocket 3.7 03:25:01 20° SSE 03:25:01 20° SSE 03:29:20 10° ESE
ATLAS CENTAUR R/B 1.9 03:24:30 44° WSW 03:26:02 69° NW 03:31:03 10° NNE
BREEZE-M R/B 4.2 03:24:25 10° WNW 03:30:39 55° SW 03:37:09 10° SE
Cosmos 2322 Rocket 4.3 03:27:34 10° SE 03:31:25 19° E 03:35:17 10° NE
ARIANE 5 R/B 2.6 03:27:13 10° NNE 03:32:23 79° ESE 03:34:58 31° S
Meteor 2-5 Rocket 4.2 03:27:47 10° NNW 03:33:21 44° W 03:35:17 33° SW
SL-08 R/B 4.2 03:33:19 30° W 03:33:21 30° W 03:37:28 10° NW
Resurs 1-4 Rocket 2.4 03:30:15 10° NNE 03:35:30 64° ESE 03:38:40 24° S
ADEOS 3.7 03:30:40 10° N 03:35:50 62° WNW 03:37:55 35° SW
ERS-1 4.4 03:32:02 10° N 03:37:07 73° WNW 03:39:14 35° SSW
BREEZE-M DEB (TANK) 2.9 03:36:01 24° WNW 03:37:19 42° N 03:40:45 10° ENE
Cosmos 1634 Rocket 4.5 03:33:41 15° SSE 03:38:46 59° E 03:44:57 10° NNE
Okean 3 Rocket 4.0 03:36:05 10° NNW 03:40:13 41° W 03:40:54 38° WSW
Meteor 2-12 Rocket 4.4 03:39:16 29° SSW 03:42:32 75° W 03:48:37 10° N
ISS -3.5 03:41:16 31° WNW 03:42:40 77° SW 03:45:55 10° SE
Cosmos 2297 Rocket 2.7 03:40:01 10° NW 03:45:12 38° WSW 03:47:02 30° SW
UNK 3.7 03:44:43 20° S 03:47:58 81° WSW 03:52:40 10° NNW
Cosmos 405 Rocket 4.4 03:47:14 10° NW 03:49:57 21° W 03:49:57 21° W
Spot 4 Rocket 4.4 03:45:27 10° N 03:50:28 51° WNW 03:52:50 29° SW
Cosmos 1092 Rocket 4.0 03:44:43 10° N 03:51:02 83° W 03:57:06 11° S
Cosmos 1378 3.3 03:51:50 10° NNW 03:55:33 54° W 03:56:49 35° SSW
Cosmos 1766 3.7 03:57:50 33° SW 03:59:04 45° WNW 04:02:52 10° N
IRS-1D 3.5 03:55:38 10° N 04:00:32 62° WNW 04:03:24 25° SW
SL-16 R/B 3.6 03:59:30 10° SSE 04:04:33 34° ESE 04:09:37 10° NE
Cosmos 1076 Rocket 3.8 04:00:47 10° NNW 04:04:56 46° W 04:07:05 25° SSW
ERS-2 3.8 04:04:48 10° NNW 04:07:37 21° WNW 04:08:38 19° W
USA 161 3.5 04:11:10 15° WNW 04:11:10 15° WNW 04:12:15 10° NW
Cosmos 1500 Rocket 4.1 04:06:22 10° N 04:10:43 58° E 04:15:01 10° SSE
GPS 2-04 Rocket1 3.6 04:11:32 26° SW 04:12:37 30° S 04:16:03 10° ESE
UNKNOWN OBJECT B 2.7 04:09:01 10° N 04:12:55 74° WNW 04:15:20 22° SSW
Cosmos 1743 Rocket 3.4 04:11:31 10° N 04:15:53 84° W 04:20:14 10° S
Cosmos 2263 Rocket 4.3 04:13:14 10° N 04:18:09 30° NE 04:23:00 10° ESE
Abrixas 2.3 04:16:51 10° WNW 04:19:54 77° SSW 04:22:58 10° ESE
Cosmos 2142 Rocket 4.5 04:15:56 14° SSW 04:21:16 70° W 04:27:24 10° N
Okean O Rocket 1.8 04:19:30 10° NNE 04:23:55 71° ESE 04:28:19 10° S
EO 1 Del DPAF 3.9 04:22:37 19° SSW 04:24:49 34° W 04:28:25 10° NNW
Cosmos 1758 3.6 04:22:23 20° SSW 04:24:55 49° W 04:28:51 10° N
Cosmos 1441 Rocket 4.3 04:21:44 10° NNW 04:25:11 28° W 04:27:05 19° SW
CZ-4B R/B 3.7 04:19:42 10° NNE 04:25:12 59° ESE 04:30:32 10° S
Cosmos 1953 2.8 04:26:54 19° SW 04:29:29 42° WNW 04:33:23 10° N
Cosmos 1805 3.6 04:27:09 18° SW 04:29:45 46° WNW 04:33:32 10° N
USA 81 4.0 04:26:37 10° S 04:31:54 78° W 04:37:12 10° N
Cosmos-2242 3.6 04:29:53 17° SW 04:32:48 40° WNW 04:36:53 10° N
Cosmos 2279 Rocket 4.0 04:26:36 10° S 04:32:52 89° ESE 04:39:10 10° N
Cosmos 1733 3.9 04:29:53 10° S 04:33:35 54° E 04:37:19 10° NNE
Cosmos 2221 4.3 04:30:10 10° SSE 04:33:57 32° E 04:37:47 10° NNE
Cosmos 2227 4.3 04:29:04 10° NNW 04:34:44 59° WSW 04:40:21 10° S
CZ-2D R/B 2.9 04:31:08 10° N 04:36:10 39° WNW 04:40:28 13° SW
ARGOS Delta rocket 4.2 04:35:17 10° NNE 04:40:25 72° E 04:45:14 10° S
Cosmos 372 Rocket 3.9 04:36:58 10° NNW 04:42:05 76° WSW 04:47:09 10° SSE
IRS-1C Rocket 4.1 04:37:52 10° N 04:43:07 73° WNW 04:48:21 10° SSW
ADEOS II 3.7 04:39:53 10° NNE 04:44:41 34° E 04:49:26 10° SSE
MOZ.5/SAFIR/RUBIN 5/SL-8 3.7 04:40:09 10° S 04:44:51 71° WSW 04:49:32 10° NNW
SL-16 R/B 3.5 04:41:26 10° SSW 04:46:33 27° W 04:51:41 10° NW
Cosmos 1544 3.5 04:43:51 12° SSW 04:47:06 45° W 04:50:38 10° N
Cosmos 2058 4.0 04:49:45 10° N 04:53:53 50° E 04:57:59 10° SSE
Cosmos 1125 Rocket 4.1 04:49:33 10° NW 04:54:14 34° W 04:58:53 10° SSW
Cosmos 1437 4.1 04:51:33 10° NW 04:54:15 23° W 04:56:57 10° SSW
Cosmos 1655 Rocket 4.3 04:48:11 10° NNW 04:54:22 52° W 05:00:31 10° SSW
Cosmos 1697 Rocket 4.1 04:50:32 10° WSW 04:55:02 24° NW 04:59:35 10° N
ADEOS Rocket 4.3 04:48:46 10° NNE 04:55:06 49° E 05:02:03 10° S
PSLV R/B 4.5 04:51:06 10° NNE 04:55:13 49° E 04:59:20 10° S
GEOS 3 Rocket 4.5 04:53:49 10° S 04:58:12 27° WSW 05:02:36 10° WNW
Cosmos 2266 Rocket 4.5 04:53:06 10° N 04:59:14 67° E 05:05:25 10° SSE
Cosmos 1842 Rocket 4.2 04:58:53 10° SSW 05:03:05 40° WNW 05:07:20 10° N
Cosmos 332 Rocket 4.2 04:58:36 10° SW 05:03:14 47° WNW 05:07:55 10° N
Cosmos 1980 Rocket 3.2 04:58:21 10° WSW 05:03:20 32° NW 05:08:22 10° N
Cosmos 2360 Rocket 3.4 04:58:32 10° S 05:03:45 41° ESE 05:09:00 10° NE
RESURS DK-1 2.7 05:01:03 10° NW 05:04:59 43° WSW 05:08:53 10° S
Cosmos 1674 3.2 05:01:37 10° NNW 05:05:10 39° W 05:08:40 10° SSW
CZ-4B DEB 4.3 05:00:31 10° N 05:06:02 69° WNW 05:11:30 10° SSW
ATLAS CENTAUR R/B 4.0 05:03:17 10° WNW 05:06:02 15° NW 05:08:46 10° N
Aureole 1 Rocket 4.3 05:00:34 10° SSW 05:06:28 64° WNW 05:14:08 10° NNE
Cosmos 967 Rocket 4.5 05:02:22 10° NW 05:08:45 75° WSW 05:15:01 10° SSE
Okean-O 2.9 05:04:43 10° NNE 05:09:09 72° ESE 05:13:34 10° S
ARIANE 5 R/B 4.5 05:08:10 10° NNW 05:10:52 14° WNW 05:13:33 10° W
Meteor 2-20 Rocket 4.5 05:07:11 10° N 05:13:18 86° W 05:19:24 10° S
CZ-3 Stage 3 4.4 04:58:37 10° W 05:23:48 37° SW 05:29:38 10° SSE
